AirNav   Air Wisconsin Up To $57,000 Bonus
 
 1342 users online  

6OI5 Mitchell Airport
Plain City, Ohio, USA

GOING TO PLAIN CITY?


FAA INFORMATION EFFECTIVE 07 NOVEMBER 2019

Location

FAA Identifier: 6OI5
Lat/Long: 40-08-14.2220N 083-13-04.6930W
40-08.237033N 083-13.078217W
40.1372839,-83.2179703
(estimated)
Elevation: 950 ft. / 290 m (estimated)
Variation: 05W (1985)
From city: 4 miles NE of PLAIN CITY, OH
Time zone: UTC -5 (UTC -4 during Daylight Saving Time)
Zip code: 43064

Airport Operations

Airport use: Private use, PERSONAL USE.
Activation date: 10/1981
Control tower: no
ARTCC: INDIANAPOLIS CENTER
FSS: DAYTON FLIGHT SERVICE STATION
Attendance: UNATNDD
Wind indicator: yes
Segmented circle: no

Airport Communications

WX ASOS at OSU (7 nm SE): PHONE 614-451-2465
WX AWOS-3 at MRT (8 nm NW): 119.275 (937-644-2967)
WX AWOS-3 at DLZ (10 nm NE): 119.025 (740-203-1878)
WX AWOS-3 at TZR (15 nm S): 135.925 (614-878-1722)
WX AWOS-3PT at UYF (17 nm SW): 120.85 (740-852-2844)
WX ASOS at CMH (17 nm SE): 124.6 (614-338-4083)

Nearby radio navigation aids

VOR radial/distance  VOR name  Freq  Var
APEr274/28.9APPLETON VORTAC116.7006W
BUDr199/(29.6)BUCKEYE VOR109.8005W
SGHr062/34.0SPRINGFIELD VOR/DME113.2004W
XUBr348/(38.3)YELLOW BUD VOR112.5005W
RODr108/38.9ROSEWOOD VORTAC117.5005W

 
NDB name  Hdg/Dist  Freq  Var  ID
FULER352/3.951505WOS --- ...
CLARK COUNTY062/30.334104WCCJ -.-. -.-. .---
COURT HOUSE020/33.241406WCSS -.-. ... ...

Airport Services

Runway Information

Runway 5/23

Dimensions: 2400 x 80 ft. / 732 x 24 m
Surface: turf
RUNWAY 5  RUNWAY 23
Traffic pattern: leftleft

Airport Ownership and Management from official FAA records

Ownership: Privately-owned
Owner: JAMES C. MITCHELL
9267 MITCHELL-DEWITTE RD
PLAIN CITY, OH 43064
Phone (614) 361-2141

Airport Operational Statistics

Aircraft based on the field: 1
Single engine airplanes: 1
    

Additional Remarks

FOR CD CTC COLUMBUS APCH AT 614-338-8537

Instrument Procedures

There are no published instrument procedures at 6OI5.

Some nearby airports with instrument procedures:

KOSU - Ohio State University Airport (7 nm SE)
KMRT - Union County Airport (8 nm NW)
KDLZ - Delaware Municipal Airport - Jim Moore Field (10 nm NE)
KTZR - Bolton Field Airport (15 nm S)
KUYF - Madison County Airport (17 nm SW)
KCMH - John Glenn Columbus International Airport (17 nm SE)
 
Loc | Ops | Rwys | IFR | FBO | Links
Com | Nav | Svcs | Stats | Notes
Area around 6OI5 (Mitchell Airport)
 
Road maps at: MapQuest Bing Google
 
Aerial photo
No photo
 
Sectional chart

 
Airport distance calculator
Flying to Mitchell Airport? Find the distance to fly.

From to 6OI5

Sunrise and sunset
Times for 11-Nov-2019
 Local
(UTC-5)
 Zulu
(UTC)
Morning civil twilight06:4611:46
Sunrise07:1512:15
Sunset17:1922:19
Evening civil twilight17:4822:48

Current date and time
Zulu (UTC)  11-Nov-2019 21:03:12
Local (UTC-5)  11-Nov-2019 16:03:12
 
METAR
KOSU 
7nm SE 
112053Z 33016G22KT 10SM OVC008 03/01 A2991 RMK AO2 SLP135 T00330006 53008
KMRT 
8nm NW 
112055Z AUTO 36015G21KT 5SM OVC006 01/00 A2995 RMK AO2 P0001 60001 T00100000
KDLZ 
10nm NE 
111959Z AUTO 34012G18KT 10SM OVC005 03/02 A2992 RMK AO2
KTZR 
16nm S 
112047Z 35013G19KT 10SM OVC008 04/02 A2992
KUYF 
17nm SW 
112055Z AUTO 34018G24KT 5SM -RA OVC007 02/01 A2994 RMK AO2
KCMH 
17nm SE 
112051Z 33013KT 10SM OVC009 06/03 A2990 RMK AO2 SLP127 T00560028 53004
TAF
KCMH 
17nm SE 
111752Z 1118/1218 19008KT P6SM BKN035 FM112100 32010KT 4SM -RA OVC015 FM112300 34012G22KT 4SM -RA BR OVC006 TEMPO 1123/1201 2SM -RASN BR OVC004 FM120100 34012G22KT 3/4SM -SN BR OVC004 FM120600 32012G20KT P6SM VCSH OVC008 FM120800 32010G18KT P6SM VCSH BKN012 FM121600 32012G20KT P6SM BKN022
NOTAMs
Click for the latest NOTAMs
NOTAMs are issued by the DoD/FAA and will open in a separate window not controlled by AirNav.

 

 
 

Would you like to see your business listed on this page?

 If your business provides an interesting product or service to pilots, flight crews, aircraft, or users of the Mitchell Airport, you should consider listing it here.  To start the listing process, click on the button below
 
Add a business
 

Other Pages about Mitchell Airport

Update a link
 
Copyright © AirNav, LLC. All rights reserved. Privacy Policy  Contact